CAPE
11 10 13 21 16 27 34 30 29 22 14 13 10 9 22 17 13 14 15 101 95 7 15 6 0 0 47 72 16 0 0 0 49 67 18 18 15 16 12 1 2 3 0 0 0 0 0
16 15 21 24 25 33 34 40 41 32 26 24 15 5 17 24 6 8 19 36 131 13 16 7 0 0 7 68 0 0 0 2 7 85 4 30 17 12 17 15 0 4 0 0 0 0 1
32 27 38 24 35 24 37 23 31 35 37 17 15 19 4 18 17 5 12 17 104 33 25 27 0 0 2 4 0 0 0 0 43 69 29 17 3 22 23 10 10 0 0 0 0 0 0
42 50 55 48 60 41 54 62 60 58 38 17 19 17 28 13 23 8 4 15 7 134 42 35 0 0 1 0 0 0 0 1 28 38 39 34 14 18 10 12 0 0 0 0 0 0 0
43 42 51 74 72 66 78 87 84 119 93 52 17 30 38 28 22 19 12 12 5 78 87 59 0 3 3 0 0 0 0 10 0 0 15 15 29 15 10 5 0 0 0 0 0 0 0
48 44 59 79 93 81 88 87 108 96 101 96 67 32 60 58 38 44 22 15 2 68 75 29 3 1 0 0 0 0 0 11 2 1 0 0 3 7 3 7 0 0 0 0 0 0 0
53 53 81 75 86 75 98 116 116 121 134 134 88 100 33 79 69 63 39 0 62 65 59 13 0 0 0 0 0 0 0 5 11 4 1 7 7 1 1 2 0 0 0 0 0 0 0
44 45 65 71 85 78 113 121 158 172 167 151 137 144 132 114 109 76 63 21 24 3 21 8 0 2 0 0 0 1 0 2 11 9 7 3 8 0 2 0 0 0 0 0 0 0 0
46 68 76 85 77 84 116 151 182 173 188 168 185 165 124 138 87 87 63 0 10 0 13 13 3 6 1 0 1 1 0 1 5 7 5 6 0 0 0 0 0 0 0 0 0 0 0
59 55 53 65 80 104 133 146 146 145 158 124 109 93 106 42 83 2 8 74 36 0 1 22 13 7 0 0 1 2 0 1 3 3 2 9 1 0 0 0 0 0 0 0 0 1 0
57 65 76 94 97 120 131 129 136 146 112 75 48 46 62 20 43 49 61 83 32 5 13 6 6 6 14 0 0 6 5 2 4 0 0 0 0 1 0 0 0 0 0 0 2 8 0
54 64 79 93 95 102 104 144 138 106 97 117 41 56 87 40 46 27 50 54 37 7 6 26 9 14 12 11 12 12 16 12 4 4 5 0 0 0 0 0 0 0 1 3 3 1 6
69 66 74 91 108 99 115 131 118 96 44 36 57 73 65 12 20 22 66 29 12 20 2 13 9 21 15 7 15 14 10 14 1 11 7 5 1 3 0 1 4 2 2 6 12 28 0
69 64 77 95 105 105 126 117 88 26 53 49 116 56 102 100 0 17 33 84 53 34 5 3 19 23 23 6 0 6 3 9 8 3 3 2 5 3 1 2 2 6 5 1 0 0 0
69 62 78 98 99 111 120 115 42 60 66 91 18 37 189 43 12 44 9 38 7 15 4 13 11 18 22 3 14 23 10 16 8 7 2 3 0 0 0 0 1 8 11 2 15 7 14
61 62 73 82 91 93 103 50 48 49 66 65 15 53 162 120 53 50 29 53 7 4 3 2 6 6 3 7 11 11 11 3 4 4 4 1 1 0 2 0 3 2 1 10 30 7 5
64 74 65 80 84 75 88 21 58 53 47 15 24 14 165 177 41 7 31 8 17 7 0 4 1 3 1 3 1 2 4 1 6 6 4 4 1 1 3 3 0 3 16 19 7 19 17
58 68 68 68 81 75 67 34 53 42 69 8 10 17 112 106 5 17 70 3 14 8 0 0 1 0 0 0 4 4 3 0 0 2 5 4 10 5 0 0 0 0 0 4 29 0 5
38 55 52 60 70 68 49 31 30 30 57 43 19 23 48 67 92 58 7 2 14 25 43 28 1 0 0 0 0 3 2 0 0 0 7 2 17 6 1 0 0 3 0 1 11 16 20
29 41 53 53 84 63 34 31 28 17 31 35 3 46 35 19 43 39 14 15 25 40 35 9 0 0 0 0 0 3 1 0 0 0 1 13 11 14 0 12 1 19 6 6 9 35 7
28 43 50 40 58 63 31 21 36 34 6 8 5 35 34 40 9 22 14 27 24 12 10 0 0 0 0 0 2 1 2 0 0 1 0 10 32 15 4 3 4 3 6 4 3 21 18
28 31 41 26 60 54 54 29 58 33 5 9 4 8 7 4 19 21 9 20 19 14 9 0 0 1 0 7 8 6 6 3 5 0 3 15 26 25 6 2 0 13 2 5 9 8 22
26 24 27 27 48 35 51 53 46 41 15 12 10 4 8 5 9 17 23 8 12 14 3 1 9 12 15 19 11 4 5 2 6 12 12 14 20 11 1 0 0 5 1 4 4 4 7
17 12 11 10 12 24 16 38 9 13 31 11 16 10 11 15 16 9 0 0 3 26 29 5 6 13 28 12 12 6 3 6 2 0 1 18 2 6 22 1 11 2 0 0 2 4 5
15 11 9 10 13 28 19 35 21 1 4 12 18 7 8 16 11 2 0 16 7 3 2 16 6 5 8 16 24 8 7 4 0 5 10 11 21 27 31 9 0 1 0 0 5 0 0
17 16 8 7 2 3 10 6 7 4 3 16 18 0 4 10 5 2 4 1 19 17 9 6 11 20 29 56 24 16 18 1 2 9 3 18 13 19 17 16 7 0 0 0 0 1 0
13 18 14 6 2 3 2 6 3 6 3 12 33 0 4 7 5 5 7 14 2 9 22 6 3 1 12 37 23 49 12 0 2 3 1 7 6 3 5 18 0 0 0 0 1 0 0
16 14 16 12 2 3 5 7 10 8 6 11 15 1 0 5 0 1 11 14 32 29 26 3 13 7 25 13 25 20 32 16 0 0 0 1 4 6 3 7 0 0 0 0 0 0 0
14 21 15 19 9 6 6 10 11 14 12 10 6 22 13 3 1 0 0 1 2 27 16 8 34 18 19 7 7 6 18 12 10 7 0 4 1 10 0 5 0 0 0 0 0 0 0
CIN
-0 -0 -0 -0 -0 -0 -0 -0 -0 -0 -0 -0 -0 -0 -0 -0 -0 -0 -4 -0 -0 -3 -0 -0 -0 -0 -0 -1 -7 -0 -0 -8 -0 -0 -0 -0 -0 -0 -0 -0 -0 -0 -0 -0 -0 -0 -0
-0 -0 -0 -0 -0 -0 -0 -0 -0 -0 -0 -0 -0 -0 -0 -0 -0 -0 -0 -2 -0 -2 -0 -0 -0 -0 -0 -0 -0 -0 -0 -13 -0 -0 -3 -0 -2 -0 -0 -0 -0 -0 -0 -0 -0 -0 -0
-0 -0 -0 -0 -0 -0 -0 -0 -0 -0 -0 -0 -0 -0 -0 -0 -0 -0 -0 -12 -0 -0 -0 -0 -0 -0 -0 -0 -0 -0 -0 -0 -10 -0 -1 -2 -26 -0 -0 -0 -0 -0 -0 -0 -0 -0 -0
-0 -0 -0 -0 -0 -0 -0 -0 -0 -0 -0 -0 -0 -0 -0 -0 -0 -0 -0 -0 -0 -0 -0 -0 -0 -0 -0 -0 -0 -0 -0 -0 -1 -0 -0 -2 -16 -1 -0 -0 -0 -0 -0 -0 -0 -0 -0
-0 -0 -0 -0 -0 -0 -0 -0 -0 -0 -0 -0 -5 -0 -0 -0 -0 -0 -0 -0 -0 -13 -0 -0 -0 -0 -0 -0 -0 -0 -0 -0 -0 -0 -0 -0 -2 -0 -0 -0 -0 -0 -0 -0 -0 -0 -0
-0 -0 -0 -0 -0 -0 -0 -0 -0 -0 -0 -0 -0 -0 -0 -0 -0 -0 -0 -0 -0 -1 -0 -0 -8 -0 -0 -0 -0 -0 -0 -0 -0 -0 -0 -0 -0 -0 -0 -0 -0 -0 -0 -0 -0 -0 -0
-0 -0 -0 -0 -0 -0 -0 -0 -0 -0 -0 -0 -0 -1 -2 -0 -2 -0 -0 -3 -0 -0 -0 -0 -0 -0 -0 -0 -0 -0 -0 -0 -0 -0 -0 -1 -0 -0 -0 -0 -0 -0 -0 -0 -0 -0 -0
-0 -0 -0 -0 -0 -0 -0 -0 -0 -0 -0 -0 -0 -7 -0 -4 -2 -2 -0 -0 -0 -1 -0 -0 -0 -0 -0 -0 -0 -0 -0 -0 -0 -0 -0 -1 -0 -0 -0 -0 -0 -0 -0 -0 -0 -0 -0
-0 -0 -0 -0 -0 -0 -0 -0 -0 -0 -0 -0 -0 -4 -0 -0 -10 -11 -0 -0 -0 -0 -1 -0 -0 -0 -0 -0 -0 -0 -0 -0 -0 -0 -0 -0 -0 -0 -0 -0 -0 -0 -0 -0 -0 -0 -0
-0 -0 -0 -0 -0 -0 -0 -0 -0 -0 -0 -1 -0 -4 -3 -6 -3 -3 -2 -5 -14 -0 -0 -0 -1 -0 -0 -0 -0 -0 -0 -0 -0 -0 -0 -0 -1 -0 -0 -0 -0 -0 -0 -0 -0 -0 -0
-0 -0 -0 -0 -0 -0 -0 -0 -0 -0 -0 -0 -0 -2 -1 -2 -9 -0 -1 -3 -25 -6 -0 -0 -0 -0 -0 -0 -0 -0 -0 -0 -0 -0 -0 -0 -0 -0 -0 -0 -0 -0 -0 -0 -0 -0 -0
-0 -0 -0 -0 -0 -0 -0 -0 -0 -0 -0 -0 -0 -4 -0 -15 -0 -2 -2 -10 -1 -0 -0 -0 -0 -0 -0 -0 -0 -1 -0 -0 -1 -0 -0 -0 -0 -0 -0 -0 -0 -1 -2 -1 -0 -2 -0
-0 -0 -0 -0 -0 -0 -0 -0 -0 -0 -0 -0 -6 -0 -0 -1 -0 -0 -9 -4 -0 -0 -1 -0 -0 -0 -0 -0 -0 -1 -1 -0 -0 -0 -0 -0 -0 -0 -0 -0 -0 -0 -0 -0 -0 -0 -0
-0 -0 -0 -0 -0 -0 -0 -0 -0 -0 -0 -0 -0 -10 -2 -3 -0 -0 -0 -1 -0 -0 -0 -0 -0 -0 -0 -2 -0 -1 -0 -0 -0 -0 -0 -0 -0 -0 -0 -0 -0 -0 -0 -0 -0 -0 -0
-0 -0 -0 -0 -0 -0 -0 -0 -0 -0 -0 -8 -33 -3 -2 -13 -0 -0 -0 -1 -1 -0 -0 -0 -0 -0 -0 -1 -0 -0 -0 -0 -0 -0 -0 -0 -0 -0 -0 -0 -0 -0 -0 -2 -0 -0 -0
-0 -0 -0 -0 -0 -0 -0 -0 -0 -0 -0 -6 -17 -11 -0 -9 -0 -0 -0 -0 -0 -0 -0 -0 -0 -0 -0 -0 -0 -0 -0 -0 -0 -0 -0 -2 -0 -0 -0 -0 -0 -0 -1 -0 -0 -0 -0
-0 -0 -0 -0 -0 -0 -0 -0 -0 -0 -0 -2 -0 -3 -0 -0 -8 -0 -0 -0 -0 -0 -0 -0 -0 -0 -0 -0 -1 -0 -0 -0 -0 -0 -0 -0 -0 -0 -0 -0 -0 -0 -0 -1 -1 -0 -0
-0 -0 -0 -0 -0 -0 -0 -0 -0 -0 -0 -2 -0 -0 -0 -0 -0 -43 -0 -0 -0 -0 -0 -0 -0 -0 -0 -0 -0 -0 -0 -0 -0 -0 -0 -0 -0 -0 -0 -0 -0 -0 -0 -0 -0 -0 -0
-0 -0 -0 -0 -0 -0 -0 -0 -0 -0 -0 -0 -0 -0 -5 -1 -0 -0 -0 -0 -0 -0 -0 -0 -0 -0 -0 -0 -0 -0 -0 -0 -0 -0 -0 -0 -0 -0 -0 -0 -0 -0 -0 -0 -0 -0 -0
-0 -0 -0 -0 -0 -0 -0 -0 -0 -0 -0 -0 -0 -0 -0 -0 -3 -0 -0 -0 -0 -1 -1 -13 -0 -0 -0 -0 -0 -0 -0 -0 -0 -0 -19 -1 -0 -0 -0 -3 -1 -0 -0 -0 -0 -0 -0
-0 -0 -0 -0 -0 -0 -0 -0 -0 -0 -0 -0 -0 -0 -0 -0 -7 -2 -0 -0 -0 -0 -0 -0 -0 -0 -0 -0 -0 -0 -0 -0 -0 -1 -0 -0 -0 -1 -0 -0 -0 -0 -0 -0 -0 -0 -0
-0 -0 -0 -0 -0 -0 -0 -0 -0 -0 -0 -0 -0 -2 -4 -2 -0 -0 -9 -0 -0 -1 -0 -0 -0 -0 -0 -0 -0 -1 -0 -0 -1 -0 -0 -0 -0 -0 -0 -0 -0 -0 -0 -0 -0 -0 -0
-0 -0 -0 -0 -0 -0 -0 -0 -0 -0 -0 -0 -0 -0 -0 -10 -0 -0 -0 -0 -0 -0 -4 -1 -0 -0 -0 -0 -0 -7 -5 -6 -0 -0 -0 -1 -0 -0 -0 -0 -0 -0 -1 -0 -0 -0 -0
-0 -0 -0 -0 -0 -0 -0 -0 -0 -0 -0 -0 -0 -0 -0 -0 -0 -0 -0 -0 -0 -0 -0 -0 -0 -0 -0 -5 -14 -23 -20 -1 -0 -0 -4 -0 -0 -3 -0 -0 -0 -1 -0 -0 -0 -0 -0
-0 -0 -0 -0 -0 -0 -0 -0 -0 -0 -0 -0 -0 -0 -0 -0 -0 -0 -0 -0 -0 -0 -0 -1 -8 -10 -11 -3 -0 -3 -0 -0 -0 -0 -0 -0 -0 -0 -0 -0 -0 -0 -0 -0 -0 -0 -1
-0 -0 -0 -0 -0 -0 -0 -0 -0 -0 -0 -0 -0 -0 -0 -0 -0 -0 -0 -0 -0 -0 -0 -0 -2 -3 -0 -0 -0 -1 -0 -1 -0 -0 -3 -0 -1 -0 -0 -0 -0 -0 -0 -0 -0 -2 -0
-0 -0 -0 -0 -0 -0 -0 -0 -0 -0 -0 -0 -0 -0 -0 -0 -0 -0 -0 -0 -0 -0 -1 -5 -3 -6 -6 -0 -0 -0 -0 -0 -0 -0 -0 -0 -0 -0 -0 -0 -0 -0 -0 -0 -4 -0 -0
-0 -0 -0 -0 -0 -0 -0 -0 -0 -0 -0 -0 -0 -2 -0 -0 -0 -0 -1 -0 -0 -0 -0 -4 -0 -1 -0 -0 -0 -0 -0 -0 -0 -0 -0 -0 -0 -0 -0 -0 -0 -0 -0 -0 -0 -0 -0
-0 -0 -0 -0 -0 -0 -0 -0 -0 -0 -0 -0 -0 -0 -0 -0 -0 -0 -1 -1 -5 -5 -0 -27 -0 -1 -0 -0 -0 -0 -0 -0 -0 -0 -0 -0 -0 -2 -0 -0 -0 -0 -0 -0 -0 -0 -0
Wind_Speed
19 18 18 18 18 18 18 17 16 17 19 19 19 19 19 21 21 20 20 18 14 11 9 7 5 7 5 4 6 9 4 6 10 14 13 12 13 13 11 9 11 13 16 15 12 14 15
17 18 17 18 19 20 19 19 18 19 19 20 19 18 18 19 21 21 20 19 16 12 10 7 5 6 9 11 9 4 5 5 9 17 13 11 5 8 7 9 9 2 11 15 12 15 15
20 20 19 19 22 21 19 19 19 19 19 20 21 22 17 19 21 22 21 20 17 12 11 9 6 7 9 9 1 4 6 2 4 13 10 6 3 5 5 7 9 9 14 14 17 17 14
19 20 21 21 20 22 22 21 20 21 21 20 21 21 20 19 18 21 20 19 21 15 13 11 7 6 7 3 3 4 8 7 5 8 6 7 6 7 7 3 5 6 11 10 7 4 13
21 21 20 22 21 22 21 22 21 20 21 23 22 21 21 22 20 20 20 17 21 16 16 11 7 8 7 6 8 12 9 9 9 9 8 7 6 4 4 10 8 10 9 13 9 6 7
23 21 22 24 23 25 24 22 19 20 21 23 23 22 20 22 22 21 19 16 19 11 12 6 2 5 7 8 8 8 9 10 10 13 11 5 4 8 10 11 7 7 13 10 9 3 8
23 24 24 25 26 25 24 22 21 21 21 22 20 17 19 20 17 14 11 3 7 8 10 8 10 2 9 10 11 10 14 14 10 11 8 7 6 12 16 15 16 7 10 13 12 8 14
25 27 27 26 27 26 25 23 22 22 21 21 18 17 19 15 16 16 8 4 5 4 7 12 4 4 10 11 8 11 15 12 13 12 12 6 14 15 11 8 11 12 14 15 14 13 13
24 26 25 27 26 26 25 23 23 22 21 20 18 13 14 17 21 10 10 9 5 7 3 13 10 12 9 8 7 17 18 11 14 14 16 11 2 2 12 11 11 14 14 14 15 15 18
23 26 24 25 25 26 24 23 23 20 20 20 17 13 12 15 10 9 8 10 3 3 3 9 10 8 8 7 5 15 15 9 6 14 13 12 10 5 8 12 11 12 10 11 11 9 7
25 25 27 26 27 26 24 23 22 20 20 19 18 12 12 7 9 6 8 10 7 3 5 16 11 7 13 10 16 13 15 4 9 7 8 3 5 12 12 13 10 6 4 4 7 10 14
25 26 26 25 26 24 23 22 22 22 21 20 18 19 17 11 6 8 5 4 9 4 5 7 7 12 15 13 7 15 13 6 2 7 11 11 3 7 9 6 10 4 2 5 6 4 9
26 26 26 25 25 25 24 22 23 22 22 22 23 25 19 15 16 7 4 2 6 6 8 9 9 14 16 12 11 13 16 12 9 6 10 10 16 6 9 7 6 9 3 2 5 7 10
25 26 25 26 25 25 24 22 23 23 23 24 28 25 9 11 14 9 2 4 4 7 8 8 16 17 10 15 11 16 15 13 14 10 5 8 7 19 13 14 6 13 11 6 7 9 13
24 25 24 25 24 25 24 24 24 23 23 26 19 9 3 5 13 10 3 6 4 12 12 16 17 11 7 17 8 12 14 12 14 14 8 6 3 2 7 6 11 6 9 16 14 17 13
23 25 25 24 24 24 24 24 24 24 24 24 6 8 7 11 14 7 2 2 4 6 18 18 8 7 9 18 9 12 14 15 11 18 12 1 3 6 8 6 11 12 1 3 5 7 13
25 25 24 25 25 24 23 25 24 24 24 22 1 3 6 12 8 0 2 1 1 13 11 3 9 11 10 15 12 14 16 6 17 13 16 7 4 5 4 10 10 9 13 6 8 9 8
24 24 25 24 23 24 23 25 25 26 26 4 2 2 4 5 2 2 0 1 8 10 3 2 4 4 15 18 11 13 9 3 6 10 11 9 2 6 12 12 12 15 15 17 9 9 8
22 24 25 23 23 24 24 26 27 29 25 3 3 1 3 3 3 2 1 2 4 9 6 5 4 2 5 12 6 7 6 6 9 12 11 10 5 4 4 2 8 11 18 17 18 15 20
22 22 24 23 23 23 24 25 27 30 24 2 3 3 3 2 4 6 3 3 6 2 5 4 8 8 10 10 3 9 6 4 10 11 9 7 5 8 8 9 11 8 15 17 15 11 18
22 22 23 22 22 24 24 26 27 28 23 2 2 3 1 3 2 4 5 8 6 3 2 2 4 2 5 4 5 4 5 5 5 8 6 6 5 9 18 22 20 20 24 23 20 18 18
21 22 22 22 22 23 23 24 24 27 22 3 3 3 5 1 7 6 1 7 7 5 2 2 2 6 4 4 1 5 6 7 6 9 12 4 4 2 15 21 21 19 24 18 18 19 16
19 21 21 21 21 22 23 22 23 25 18 3 3 2 3 3 6 5 2 5 4 5 3 4 2 5 4 4 4 3 2 4 1 2 10 4 1 3 7 11 20 10 5 6 7 10 11
17 18 19 20 20 21 21 22 23 23 19 2 3 2 4 2 4 3 3 1 5 5 5 4 2 2 6 4 0 2 4 8 7 8 6 6 4 2 7 14 4 5 2 6 10 15 12
16 16 17 17 19 21 20 21 21 22 23 3 2 2 3 3 4 4 6 4 5 4 5 4 4 4 4 3 3 3 1 2 8 11 12 14 5 3 4 6 18 6 3 2 3 8 9
15 15 15 15 17 18 21 20 21 21 21 9 3 2 2 4 5 1 5 4 3 3 3 3 4 4 1 1 1 2 2 1 4 4 1 10 10 5 2 5 6 5 6 3 2 1 14
15 15 15 14 14 15 17 18 18 19 20 11 1 6 2 2 3 5 5 5 3 4 3 2 1 0 2 3 2 2 3 2 3 5 6 4 2 8 7 5 11 7 4 1 5 7 10
15 14 15 14 13 15 16 17 17 16 18 11 5 4 2 3 8 6 9 5 3 5 4 5 3 1 2 1 2 2 3 1 3 1 6 8 7 5 5 5 7 3 2 4 6 7 5
15 14 14 14 13 13 14 16 17 15 15 12 4 6 1 2 5 5 14 11 7 6 1 3 3 3 2 2 3 1 2 4 5 3 4 5 7 2 6 4 5 6 8 9 6 8 6
Wind_Direction
356 354 346 344 349 344 343 340 340 338 334 333 332 333 327 319 325 330 324 317 232 234 235 233 258 273 245 225 238 118 214 189 209 204 200 200 211 218 222 217 227 239 255 254 250 266 260
346 343 342 339 336 334 334 332 333 330 328 328 325 326 322 321 319 320 325 319 256 219 223 219 235 264 242 247 130 194 203 196 212 187 194 200 259 245 288 241 222 334 268 268 259 258 249
342 339 332 335 331 328 329 327 325 324 322 323 324 319 317 316 314 313 319 315 310 211 211 206 205 232 241 236 180 163 201 203 185 180 180 174 296 250 244 241 237 266 265 265 248 240 237
327 328 330 326 323 319 325 320 326 321 315 315 319 314 313 306 308 309 310 303 311 207 195 188 194 219 254 70 215 197 184 158 125 134 179 171 195 266 262 54 213 241 241 252 110 232 236
335 333 327 319 318 315 314 309 321 312 309 313 315 313 313 306 306 305 301 305 295 205 183 174 191 225 233 124 196 205 201 165 136 125 123 138 180 232 194 233 225 216 258 218 262 211 253
328 330 321 318 315 317 316 322 315 312 315 310 311 320 317 307 303 298 293 306 289 176 182 147 357 206 198 199 154 173 197 160 153 132 119 149 200 237 216 214 222 236 219 254 261 168 234
332 326 331 328 324 323 323 324 318 317 314 309 316 306 309 309 304 304 295 355 182 180 201 178 186 219 137 119 143 176 171 175 168 169 153 177 209 221 229 223 258 299 296 278 277 292 285
340 332 332 332 328 328 330 325 322 320 314 311 312 301 312 326 331 316 297 234 306 352 170 224 231 150 149 166 130 156 169 172 186 189 181 153 233 243 252 272 247 255 261 267 279 281 291
335 330 332 329 330 332 328 329 324 321 313 316 318 308 309 327 321 289 241 230 334 354 197 188 200 168 163 198 153 167 188 193 195 195 192 207 137 292 231 229 239 244 258 274 282 309 294
329 334 335 334 335 332 332 328 324 324 318 319 317 291 301 327 308 333 288 143 106 73 150 146 192 208 178 203 155 158 188 170 196 204 197 230 224 199 220 234 232 265 274 264 282 290 272
335 331 337 334 335 334 332 333 331 324 318 315 313 292 285 305 304 287 354 136 73 51 217 151 148 145 164 184 123 172 176 188 177 183 177 171 200 208 225 237 232 239 43 292 284 279 296
331 339 339 339 338 336 341 337 331 328 328 321 315 304 299 283 249 268 351 254 106 209 189 161 133 165 164 186 136 148 174 239 291 207 220 262 129 220 226 227 223 64 242 278 278 289 256
337 341 340 342 340 341 345 340 335 331 327 328 317 301 271 253 239 245 356 119 132 257 165 143 160 161 166 178 154 172 180 180 176 166 216 230 233 215 236 215 204 223 197 242 217 202 247
339 342 342 339 342 343 341 342 332 337 336 326 320 308 269 237 214 217 271 186 237 141 156 162 136 148 165 170 187 179 177 193 212 223 163 201 189 193 190 216 184 209 202 228 265 258 296
341 340 344 338 346 344 345 341 343 339 335 334 328 316 352 89 150 156 157 168 233 158 136 143 132 142 158 194 141 182 196 204 203 203 209 187 248 174 167 192 222 175 216 252 291 278 272
339 342 345 343 348 344 346 344 343 340 339 340 313 333 51 130 147 127 197 113 256 131 133 139 131 181 157 189 156 190 186 198 202 204 225 67 250 177 178 218 225 221 83 179 196 270 266
340 343 351 345 348 350 349 350 343 340 339 336 307 29 86 108 86 21 199 319 148 136 124 116 138 158 164 177 193 189 185 130 197 189 192 195 228 133 146 207 206 196 233 215 282 252 278
343 346 345 349 349 354 350 353 346 341 338 340 49 91 128 168 83 238 360 16 119 121 5 69 157 161 161 176 183 189 178 78 179 173 187 202 180 245 241 242 226 260 219 224 231 231 243
347 348 344 351 356 355 357 354 349 346 351 322 67 13 57 322 159 132 34 304 155 158 190 158 145 182 138 163 174 190 190 109 175 177 169 164 209 282 225 168 244 243 245 248 238 265 251
346 350 349 357 357 354 356 356 352 348 354 17 100 125 109 274 280 130 123 27 105 46 80 89 110 130 140 169 22 176 155 156 182 203 68 184 218 238 271 302 322 254 256 260 255 245 262
345 352 347 356 359 356 355 357 356 352 360 45 185 84 56 149 182 162 175 159 145 130 69 146 125 165 162 151 179 163 171 149 173 178 178 216 241 259 266 276 280 272 273 270 257 256 251
348 349 355 355 359 358 357 357 360 0 353 55 47 6 329 150 183 175 143 137 140 115 173 171 201 157 156 150 139 164 198 209 215 171 203 212 263 311 278 267 259 270 276 278 265 254 251
347 351 354 0 2 1 359 356 6 6 2 14 352 291 267 322 217 208 106 125 123 139 54 37 102 150 161 55 12 4 281 318 14 198 197 199 261 287 269 318 310 272 273 265 262 247 260
349 353 351 2 359 0 3 359 6 7 13 349 7 287 293 128 198 181 125 135 182 50 92 109 88 63 58 53 347 259 252 267 234 237 246 191 153 247 293 306 266 10 113 273 269 281 284
348 350 348 0 2 357 1 3 6 4 2 37 4 337 314 161 184 172 159 111 145 144 76 100 59 46 347 316 289 298 142 221 234 220 216 229 209 263 277 310 273 293 358 328 340 311 13
341 340 340 358 4 359 355 357 358 358 2 347 22 328 345 310 198 203 213 204 204 166 170 137 81 17 342 307 230 275 260 242 163 131 257 224 219 220 316 305 298 5 39 129 165 79 20
333 331 334 346 357 356 352 349 352 352 356 346 13 352 246 291 294 318 219 226 203 192 66 114 93 345 91 217 238 237 263 342 242 196 167 151 177 227 243 260 274 302 13 183 293 0 355
325 325 326 335 347 349 347 342 344 351 348 349 315 37 31 321 287 297 264 234 163 195 188 136 182 188 151 168 239 229 268 277 271 223 177 180 185 198 187 233 267 48 261 316 353 326 324
319 318 320 322 331 335 335 332 337 341 340 346 322 332 121 222 277 318 286 286 313 328 316 162 352 119 108 169 214 287 260 272 283 269 217 238 223 315 219 224 336 316 283 319 336 301 297